This is the latest recevied weather packets stored in our database for station/object NC4M. If no packets are shown the sender has not sent any weather packets the latest 10 day(s).
| Time | Temp. | Humidity | Pressure | Rain* | Wind** | Luminosity | Snow |
|---|---|---|---|---|---|---|---|
| 1787432266 | 29.44° C | 61% | 1018.5 hPa | 0 mm | - | 615 W/m² | - |
| 1787431961 | 28.89° C | 60% | 1018.4 hPa | 0 mm | - | 627 W/m² | - |
| 1787431660 | 28.89° C | 60% | 1018.3 hPa | 0 mm | - | 657 W/m² | - |
| 1787431356 | 28.89° C | 61% | 1018.6 hPa | 0 mm | - | 324 W/m² | - |
| 1787431053 | 28.33° C | 61% | 1018.5 hPa | 0 mm | - | 486 W/m² | - |
| 1787430749 | 28.89° C | 60% | 1018.7 hPa | 0 mm | - | 521 W/m² | - |
| 1787430444 | 28.89° C | 66% | 1018.6 hPa | 0 mm | - | 379 W/m² | - |
| 1787430141 | 28.33° C | 69% | 1018.8 hPa | 0 mm | - | 159 W/m² | - |
| 1787429836 | 28.33° C | 66% | 1018.7 hPa | 0 mm | - | 171 W/m² | - |
| 1787429536 | 27.78° C | 67% | 1019 hPa | 0 mm | - | 656 W/m² | - |
| 1787429232 | 27.78° C | 64% | 1019.1 hPa | 0 mm | - | 430 W/m² | - |
| 1787428928 | 27.78° C | 63% | 1019.1 hPa | 0 mm | - | 152 W/m² | - |
| 1787428623 | 27.78° C | 68% | 1019.3 hPa | 0 mm | - | 183 W/m² | - |
| 1787428318 | 27.78° C | 67% | 1019.1 hPa | 0 mm | - | 198 W/m² | - |
| 1787428013 | 27.78° C | 67% | 1019.2 hPa | 0 mm | - | 225 W/m² | - |
| 1787427708 | 27.78° C | 65% | 1019.1 hPa | 0 mm | - | 211 W/m² | - |
| 1787427404 | 27.78° C | 67% | 1019.1 hPa | 0 mm | - | 236 W/m² | - |
| 1787427100 | 27.78° C | 66% | 1019.2 hPa | 0 mm | - | 259 W/m² | - |
| 1787426796 | 27.78° C | 67% | 1019.2 hPa | 0 mm | - | 247 W/m² | - |
| 1787426496 | 27.78° C | 67% | 1019 hPa | 0 mm | - | 356 W/m² | - |
| 1787426193 | 27.78° C | 67% | 1019 hPa | 0 mm | - | 309 W/m² | - |
| 1787425889 | 27.78° C | 66% | 1019.1 hPa | 0 mm | - | 374 W/m² | - |
| 1787425585 | 27.78° C | 67% | 1018.9 hPa | 0 mm | - | 348 W/m² | - |
| 1787425280 | 27.22° C | 67% | 1019 hPa | 0 mm | - | 268 W/m² | - |
| 1787424980 | 27.22° C | 66% | 1018.8 hPa | 0 mm | - | 267 W/m² | - |
* Rain latest hour (hover to see other rain measurements)
** Current wind speed in m/s (hover to see current wind gust speed)